When you browse on this site, cookies collect data to enhance your experience and personalize the content and advertising you see.
Visit our Privacy Policy to learn more. By continuing to use the site, you agree to this use of cookies and data.
  • In Österreich
  • Länderverzeichnis
  • Für 7 Tage
  • Wassertemperatur
  • Wetterkarte
  • News
  • Widgets
  • user-avatar
    Anmelden

    Stündliche Wetter Tizayuca

    Heute, 11 Dezember, Mittwoch

    Zeit Temperatur Niederschläge Wind Luftdruck Luftfeuchtigkeit
    00:00 +13°C° 0 mm 2 m/S 583 mmHg 79%
    01:00 +12°C° 0 mm 2 m/S 582 mmHg 80%
    02:00 +12°C° 0 mm 2 m/S 582 mmHg 82%
    03:00 +12°C° 0 mm 2 m/S 583 mmHg 80%
    04:00 +13°C° 0 mm 2 m/S 583 mmHg 78%
    05:00 +13°C° 0 mm 2 m/S 583 mmHg 77%
    06:00 +13°C° 0 mm 2 m/S 584 mmHg 74%
    07:00 +13°C° 0 mm 2 m/S 584 mmHg 71%
    08:00 +14°C° 0 mm 2 m/S 585 mmHg 68%
    09:00 +15°C° 0 mm 2 m/S 585 mmHg 63%
    10:00 +16°C° 0 mm 2 m/S 585 mmHg 57%
    11:00 +18°C° 0 mm 1 m/S 585 mmHg 51%
    12:00 +18°C° 0 mm 1 m/S 585 mmHg 48%
    13:00 +18°C° 0 mm 2 m/S 585 mmHg 45%
    14:00 +19°C° 0 mm 2 m/S 585 mmHg 42%
    15:00 +18°C° 0 mm 2 m/S 584 mmHg 49%
    16:00 +16°C° 0 mm 3 m/S 584 mmHg 56%
    17:00 +13°C° 0 mm 4 m/S 583 mmHg 63%
    18:00 +12°C° 0 mm 3 m/S 583 mmHg 68%
    19:00 +12°C° 0 mm 2 m/S 583 mmHg 73%
    20:00 +10°C° 0 mm 2 m/S 583 mmHg 78%
    21:00 +11°C° 0 mm 1 m/S 583 mmHg 80%
    22:00 +11°C° 0 mm 1 m/S 583 mmHg 81%
    23:00 +10°C° 0 mm 1 m/S 582 mmHg 83%

    Morgen, 12 Dezember, Donnerstag

    Zeit Temperatur Niederschläge Wind Luftdruck Luftfeuchtigkeit
    00:00 +9°C° 0 mm 0 m/S 582 mmHg 84%
    01:00 +9°C° 0 mm 0 m/S 582 mmHg 84%
    02:00 +9°C° 0 mm 0 m/S 581 mmHg 85%
    03:00 +9°C° 0 mm 0 m/S 581 mmHg 84%
    04:00 +9°C° 0 mm 0 m/S 581 mmHg 84%
    05:00 +9°C° 0 mm 0 m/S 581 mmHg 83%
    06:00 +10°C° 0 mm 0 m/S 582 mmHg 76%
    07:00 +12°C° 0 mm 0 m/S 583 mmHg 69%
    08:00 +13°C° 0 mm 0 m/S 584 mmHg 62%
    09:00 +15°C° 0 mm 0 m/S 584 mmHg 54%
    10:00 +19°C° 0 mm 1 m/S 585 mmHg 46%
    11:00 +21°C° 0 mm 1 m/S 585 mmHg 37%
    12:00 +21°C° 0 mm 1 m/S 585 mmHg 35%
    13:00 +21°C° 0 mm 2 m/S 584 mmHg 32%
    14:00 +22°C° 0 mm 3 m/S 584 mmHg 29%
    15:00 +20°C° 0 mm 3 m/S 584 mmHg 34%
    16:00 +19°C° 0 mm 4 m/S 583 mmHg 38%
    17:00 +17°C° 0 mm 5 m/S 583 mmHg 42%
    18:00 +17°C° 0 mm 4 m/S 583 mmHg 46%
    19:00 +17°C° 0 mm 2 m/S 583 mmHg 49%
    20:00 +16°C° 0 mm 1 m/S 583 mmHg 53%
    21:00 +16°C° 0 mm 1 m/S 583 mmHg 55%
    22:00 +15°C° 0 mm 1 m/S 583 mmHg 56%
    23:00 +13°C° 0 mm 0 m/S 582 mmHg 58%

    übermorgen, 13 Dezember, Freitag

    Zeit Temperatur Niederschläge Wind Luftdruck Luftfeuchtigkeit
    00:00 +13°C° 0 mm 0 m/S 582 mmHg 59%
    01:00 +12°C° 0 mm 0 m/S 581 mmHg 60%
    02:00 +12°C° 0 mm 0 m/S 580 mmHg 61%
    03:00 +11°C° 0 mm 0 m/S 580 mmHg 62%
    04:00 +11°C° 0 mm 0 m/S 580 mmHg 62%
    05:00 +10°C° 0 mm 0 m/S 580 mmHg 63%
    06:00 +12°C° 0 mm 0 m/S 581 mmHg 58%
    07:00 +14°C° 0 mm 1 m/S 582 mmHg 52%
    08:00 +15°C° 0 mm 1 m/S 583 mmHg 47%
    09:00 +18°C° 0 mm 1 m/S 583 mmHg 42%
    10:00 +18°C° 0 mm 2 m/S 583 mmHg 37%
    11:00 +20°C° 0 mm 2 m/S 583 mmHg 31%
    12:00 +20°C° 0 mm 2 m/S 583 mmHg 28%
    13:00 +21°C° 0 mm 3 m/S 583 mmHg 25%
    14:00 +22°C° 0 mm 3 m/S 582 mmHg 22%
    15:00 +20°C° 0 mm 3 m/S 582 mmHg 25%
    16:00 +19°C° 0 mm 3 m/S 581 mmHg 27%
    17:00 +18°C° 0 mm 4 m/S 581 mmHg 29%
    18:00 +17°C° 0 mm 3 m/S 581 mmHg 33%
    19:00 +16°C° 0 mm 2 m/S 581 mmHg 37%
    20:00 +15°C° 0 mm 1 m/S 581 mmHg 41%
    21:00 +14°C° 0 mm 1 m/S 581 mmHg 45%
    22:00 +13°C° 0 mm 1 m/S 580 mmHg 50%
    23:00 +11°C° 0 mm 0 m/S 580 mmHg 55%

    14 Dezember, Samstag

    Zeit Temperatur Niederschläge Wind Luftdruck Luftfeuchtigkeit
    00:00 +11°C° 0 mm 0 m/S 579 mmHg 56%
    01:00 +10°C° 0 mm 0 m/S 579 mmHg 58%
    02:00 +10°C° 0 mm 0 m/S 578 mmHg 59%
    03:00 +10°C° 0 mm 0 m/S 578 mmHg 61%
    04:00 +9°C° 0 mm 0 m/S 578 mmHg 62%
    05:00 +9°C° 0 mm 0 m/S 578 mmHg 64%
    06:00 +10°C° 0 mm 0 m/S 579 mmHg 57%
    07:00 +12°C° 0 mm 0 m/S 580 mmHg 50%
    08:00 +14°C° 0 mm 0 m/S 581 mmHg 43%
    09:00 +15°C° 0 mm 0 m/S 581 mmHg 36%
    10:00 +17°C° 0 mm 0 m/S 582 mmHg 30%
    11:00 +21°C° 0 mm 1 m/S 582 mmHg 23%
    12:00 +21°C° 0 mm 1 m/S 582 mmHg 21%
    13:00 +22°C° 0 mm 1 m/S 581 mmHg 18%
    14:00 +23°C° 0 mm 1 m/S 581 mmHg 16%
    15:00 +21°C° 0 mm 1 m/S 581 mmHg 18%
    16:00 +20°C° 0 mm 1 m/S 580 mmHg 21%
    17:00 +17°C° 0 mm 0 m/S 580 mmHg 23%
    18:00 +16°C° 0 mm 0 m/S 580 mmHg 27%
    19:00 +16°C° 0 mm 1 m/S 580 mmHg 31%
    20:00 +15°C° 0 mm 1 m/S 580 mmHg 34%
    21:00 +14°C° 0 mm 1 m/S 580 mmHg 39%
    22:00 +14°C° 0 mm 1 m/S 579 mmHg 44%
    23:00 +13°C° 0 mm 1 m/S 579 mmHg 50%

    15 Dezember, Sonntag

    Zeit Temperatur Niederschläge Wind Luftdruck Luftfeuchtigkeit
    00:00 +13°C° 0 mm 1 m/S 579 mmHg 53%
    01:00 +12°C° 0 mm 1 m/S 578 mmHg 57%
    02:00 +12°C° 0 mm 1 m/S 578 mmHg 60%
    03:00 +11°C° 0 mm 1 m/S 578 mmHg 63%
    04:00 +11°C° 0 mm 1 m/S 578 mmHg 66%
    05:00 +11°C° 0 mm 1 m/S 578 mmHg 69%
    06:00 +12°C° 0 mm 1 m/S 579 mmHg 63%
    07:00 +14°C° 0 mm 1 m/S 580 mmHg 57%
    08:00 +15°C° 0 mm 1 m/S 581 mmHg 51%
    09:00 +18°C° 0 mm 1 m/S 581 mmHg 44%
    10:00 +20°C° 0 mm 1 m/S 582 mmHg 37%
    11:00 +20°C° 0 mm 2 m/S 582 mmHg 31%
    12:00 +21°C° 0 mm 2 m/S 582 mmHg 28%
    13:00 +23°C° 0 mm 2 m/S 582 mmHg 24%
    14:00 +24°C° 0 mm 2 m/S 581 mmHg 21%
    15:00 +21°C° 0 mm 2 m/S 581 mmHg 25%
    16:00 +20°C° 0 mm 2 m/S 581 mmHg 28%
    17:00 +19°C° 0 mm 2 m/S 580 mmHg 32%
    18:00 +18°C° 0 mm 2 m/S 580 mmHg 37%
    19:00 +17°C° 0 mm 2 m/S 580 mmHg 43%
    20:00 +15°C° 0 mm 1 m/S 580 mmHg 48%
    21:00 +15°C° 0 mm 1 m/S 580 mmHg 51%
    22:00 +14°C° 0 mm 1 m/S 580 mmHg 54%
    23:00 +14°C° 0 mm 1 m/S 579 mmHg 57%

    16 Dezember, Montag

    Zeit Temperatur Niederschläge Wind Luftdruck Luftfeuchtigkeit
    00:00 +13°C° 0 mm 1 m/S 579 mmHg 59%
    01:00 +13°C° 0 mm 1 m/S 579 mmHg 61%
    02:00 +12°C° 0 mm 1 m/S 578 mmHg 63%
    03:00 +12°C° 0 mm 1 m/S 578 mmHg 64%
    04:00 +12°C° 0 mm 1 m/S 578 mmHg 65%
    05:00 +11°C° 0 mm 1 m/S 578 mmHg 67%
    06:00 +12°C° 0 mm 1 m/S 579 mmHg 60%
    07:00 +14°C° 0 mm 1 m/S 580 mmHg 54%
    08:00 +15°C° 0 mm 1 m/S 581 mmHg 47%
    09:00 +17°C° 0 mm 2 m/S 581 mmHg 41%
    10:00 +18°C° 0 mm 2 m/S 582 mmHg 34%
    11:00 +20°C° 0 mm 2 m/S 582 mmHg 27%
    12:00 +21°C° 0 mm 2 m/S 582 mmHg 25%
    13:00 +22°C° 0 mm 1 m/S 582 mmHg 23%
    14:00 +23°C° 0 mm 1 m/S 581 mmHg 21%
    15:00 +22°C° 0 mm 1 m/S 581 mmHg 25%
    16:00 +20°C° 0 mm 2 m/S 581 mmHg 28%
    17:00 +18°C° 0 mm 2 m/S 580 mmHg 32%
    18:00 +17°C° 0 mm 2 m/S 581 mmHg 38%
    19:00 +16°C° 0 mm 1 m/S 581 mmHg 44%
    20:00 +15°C° 0 mm 1 m/S 581 mmHg 50%
    21:00 +15°C° 0 mm 1 m/S 581 mmHg 53%
    22:00 +14°C° 0 mm 1 m/S 581 mmHg 56%
    23:00 +13°C° 0 mm 1 m/S 580 mmHg 59%
    Mehr zeigen